TimeEST,TemperatureF,Dew PointF,Humidity,Sea Level PressureIn,VisibilityMPH,Wind Direction,Wind SpeedMPH,Gust SpeedMPH,PrecipitationIn,Events,Conditions,WindDirDegrees,DateUTC
12:46 AM,55.4,53.6,94,29.76,5.0,SSW,16.1,23.0,0.01,Rain,Light Rain,210,2011-12-15 05:46:00
12:53 AM,55.9,53.1,90,29.77,5.0,SSW,20.7,25.3,0.01,,Overcast,210,2011-12-15 05:53:00
1:26 AM,55.4,53.6,94,29.74,8.0,SSW,18.4,29.9,0.01,Rain,Light Rain,210,2011-12-15 06:26:00
1:53 AM,55.9,53.1,90,29.73,9.0,SSW,18.4,-,0.07,Rain,Light Rain,210,2011-12-15 06:53:00
2:34 AM,55.4,53.6,94,29.72,3.0,SSW,20.7,-,0.02,Rain,Light Rain,210,2011-12-15 07:34:00
2:53 AM,55.9,53.1,90,29.72,4.0,SSW,17.3,-,0.05,Rain,Light Rain,210,2011-12-15 07:53:00
3:53 AM,55.9,53.1,90,29.70,4.0,SSW,15.0,-,0.03,Rain,Light Rain,210,2011-12-15 08:53:00
4:53 AM,55.9,54.0,93,29.70,4.0,SW,16.1,27.6,0.02,Rain,Light Rain,220,2011-12-15 09:53:00
5:53 AM,57.0,54.0,89,29.68,5.0,SW,13.8,-,0.02,Rain,Light Rain,230,2011-12-15 10:53:00
6:39 AM,57.2,53.6,88,29.68,10.0,SW,15.0,-,0.05,Rain,Light Rain,230,2011-12-15 11:39:00
6:51 AM,57.2,53.6,88,29.69,10.0,WSW,15.0,23.0,0.05,Rain,Light Rain,240,2011-12-15 11:51:00
7:38 AM,57.2,53.6,88,29.68,10.0,SW,11.5,-,0.00,,Overcast,230,2011-12-15 12:38:00
7:53 AM,57.0,53.1,87,29.68,10.0,SW,13.8,-,0.00,,Overcast,230,2011-12-15 12:53:00
8:01 AM,57.2,53.6,88,29.68,10.0,SW,13.8,-,N/A,,Overcast,230,2011-12-15 13:01:00
8:23 AM,57.2,53.6,88,29.69,9.0,West,11.5,-,0.00,Rain,Light Rain,270,2011-12-15 13:23:00
8:38 AM,55.4,51.8,88,29.69,4.0,WSW,18.4,-,0.07,Rain,Rain,240,2011-12-15 13:38:00
8:45 AM,55.4,51.8,88,29.69,9.0,WSW,15.0,-,0.07,Rain,Light Rain,240,2011-12-15 13:45:00
9:16 AM,53.6,51.8,94,29.70,10.0,WSW,12.7,-,0.01,,Overcast,250,2011-12-15 14:16:00
9:51 AM,53.6,48.2,82,29.72,10.0,WSW,15.0,21.9,0.01,,Overcast,250,2011-12-15 14:51:00
9:53 AM,54.0,48.9,83,29.72,10.0,WSW,17.3,-,0.01,,Overcast,250,2011-12-15 14:53:00
10:30 AM,51.8,46.4,82,29.74,10.0,West,20.7,31.1,N/A,,Overcast,260,2011-12-15 15:30:00
10:53 AM,51.1,45.0,80,29.76,10.0,West,18.4,26.5,N/A,,Overcast,270,2011-12-15 15:53:00
11:53 AM,48.0,42.1,80,29.79,10.0,WSW,19.6,32.2,N/A,,Overcast,250,2011-12-15 16:53:00
12:53 PM,46.0,37.9,73,29.81,10.0,West,20.7,27.6,N/A,,Overcast,260,2011-12-15 17:53:00
1:00 PM,46.4,37.4,71,29.81,10.0,WSW,16.1,-,N/A,,Overcast,250,2011-12-15 18:00:00
2:43 PM,44.6,35.6,71,29.83,10.0,West,23.0,29.9,N/A,,Overcast,260,2011-12-15 19:43:00
2:53 PM,43.0,35.1,74,29.84,10.0,WSW,24.2,28.8,N/A,,Overcast,250,2011-12-15 19:53:00
3:20 PM,42.8,35.6,76,29.85,10.0,WSW,21.9,26.5,N/A,,Overcast,250,2011-12-15 20:20:00
3:53 PM,42.1,33.1,70,29.88,10.0,WSW,27.6,34.5,N/A,,Overcast,250,2011-12-15 20:53:00
4:53 PM,39.9,32.0,73,29.93,10.0,WSW,19.6,32.2,N/A,,Overcast,250,2011-12-15 21:53:00
5:01 PM,39.2,32.0,75,29.92,10.0,West,20.7,36.8,N/A,,Overcast,260,2011-12-15 22:01:00
5:53 PM,37.9,30.9,76,29.98,10.0,West,24.2,38.0,N/A,,Overcast,260,2011-12-15 22:53:00
6:53 PM,35.1,26.1,70,30.04,10.0,West,19.6,35.7,N/A,,Overcast,280,2011-12-15 23:53:00
7:24 PM,35.6,26.6,70,30.04,10.0,West,19.6,31.1,N/A,,Overcast,280,2011-12-16 00:24:00
7:53 PM,35.1,25.0,67,30.07,10.0,West,19.6,27.6,N/A,,Overcast,270,2011-12-16 00:53:00
8:53 PM,35.1,25.0,67,30.09,10.0,West,13.8,-,N/A,,Overcast,270,2011-12-16 01:53:00
9:53 PM,35.1,25.0,67,30.12,10.0,West,17.3,-,N/A,,Overcast,270,2011-12-16 02:53:00
10:53 PM,35.1,25.0,67,30.15,10.0,West,17.3,-,N/A,,Overcast,270,2011-12-16 03:53:00
11:53 PM,35.1,25.0,67,30.18,10.0,West,16.1,25.3,N/A,,Overcast,280,2011-12-16 04:53:00